This is the latest recevied weather packets stored in our database for station/object K8DJB-1. If no packets are shown the sender has not sent any weather packets the latest 1 day(s).
| Time | Temp. | Humidity | Pressure | Rain* | Wind** | Luminosity | Snow |
|---|---|---|---|---|---|---|---|
| 1778007515 | 11.67° C | 42% | 1007.9 hPa | 0 mm | 4.47 m/s, 270° | - | - |
| 1778007215 | 11.67° C | 42% | 1007.7 hPa | 0 mm | 4.92 m/s, 297° | - | - |
| 1778006915 | 11.67° C | 42% | 1007.8 hPa | 0 mm | 4.47 m/s, 308° | - | - |
| 1778006615 | 11.67° C | 43% | 1007.7 hPa | 0 mm | 5.81 m/s, 307° | - | - |
| 1778006315 | 11.67° C | 43% | 1007.9 hPa | 0 mm | 4.92 m/s, 292° | - | - |
| 1778006015 | 11.67° C | 42% | 1007.8 hPa | 0 mm | 4.02 m/s, 293° | - | - |
| 1778005715 | 11.11° C | 40% | 1007.8 hPa | 0 mm | 5.81 m/s, 267° | - | - |
| 1778005415 | 11.67° C | 41% | 1007.8 hPa | 0 mm | 6.26 m/s, 295° | - | - |
| 1778005115 | 11.11° C | 42% | 1007.6 hPa | 0 mm | 4.92 m/s, 304° | - | - |
| 1778004815 | 11.11° C | 42% | 1007.6 hPa | 0 mm | 4.92 m/s, 285° | - | - |
| 1778004515 | 11.67° C | 40% | 1007.4 hPa | 0 mm | 5.36 m/s, 279° | - | - |
| 1778004215 | 12.22° C | 41% | 1007.6 hPa | 0 mm | 4.47 m/s, 286° | - | - |
| 1778003915 | 11.67° C | 41% | 1007.6 hPa | 0 mm | 4.47 m/s, 275° | - | - |
| 1778003615 | 11.67° C | 42% | 1007.6 hPa | 0 mm | 4.92 m/s, 275° | - | - |
| 1778003315 | 11.67° C | 42% | 1007.7 hPa | 0 mm | 4.47 m/s, 266° | - | - |
| 1778003015 | 11.67° C | 38% | 1007.5 hPa | 0 mm | 5.36 m/s, 268° | - | - |
| 1778002715 | 11.67° C | 41% | 1007.4 hPa | 0 mm | 5.81 m/s, 273° | - | - |
| 1778002415 | 11.67° C | 39% | 1007.2 hPa | 0 mm | 7.15 m/s, 276° | - | - |
| 1778002115 | 11.67° C | 39% | 1007.3 hPa | 0 mm | 4.02 m/s, 258° | - | - |
| 1778001815 | 11.11° C | 38% | 1007.2 hPa | 0 mm | 4.47 m/s, 254° | - | - |
| 1778001515 | 11.67° C | 37% | 1007.1 hPa | 0 mm | 4.92 m/s, 259° | - | - |
| 1778001215 | 11.11° C | 38% | 1007 hPa | 0 mm | 4.92 m/s, 280° | - | - |
| 1778000915 | 11.67° C | 38% | 1007 hPa | 0 mm | 4.47 m/s, 268° | - | - |
| 1778000615 | 11.67° C | 39% | 1006.9 hPa | 0 mm | 4.02 m/s, 267° | - | - |
| 1778000182 | 11.67° C | 38% | 1006.8 hPa | 0 mm | 5.81 m/s, 270° | - | - |
* Rain latest hour (hover to see other rain measurements)
** Current wind speed in m/s (hover to see current wind gust speed)